Погода в Семлячики

Погода в Семлячики : погода сейчас, прогноз погоды и архив. Всё, что Вы хотите узнать о погоде в Семлячики!

Хотите узнать прогноз погоды в Семлячики? Тогда Вам сюда: Погода в Семлячики

Поиск расширенной информации на нашем сайте:

Другие новости

Новости СМИ2

Главная страница сайта

Новости сайта

03.07.2017

Напоминаем, что на нашем специализированном сайте Метеоцентр.Азия вы можете получить высокодетализированные автоматические прогнозы погоды по пунктам России, СНГ и мира в авиационном формате (включающие направление и скорость ветра, видимость, явления погоды, количество и форму облачности, нижнюю и верхнюю границу облачности).

Рекомендуем: перевозка пассажиров в Воронеже

Погода в Семлячики - сегодня

Время (UTC), дата Ветер
(°,м/с) 
Видим.   Явления Облачность Т
(°С)
Тd
(°С)
f(%) Тe
(°С)
Pmin
(гПа)
dP
(гПа)
Po
(мм)
O2
(г/м3)
Тmin Tmax R s Состояние
почвы
12 04.11.18 330 (СЗ) 20000 м    10/8 1000 м средняя, верхняя 
[Sc|Ac trans|Ci fib]
+2.7 -0.2 81 +1  994.1  -2.1  743  296           
21 04.11.18 200 (Ю) 20000 м    ясно 
-1.9 -9.8 55 -4  1000.2  0.3  748  304  -2.8         
03 05.11.18 220 (ЮЗ) 8-12{16}  20000 м    6/3 600 м средняя, верхняя 
[Sc|Ac trans|Ci fib]
+1.6 -8.8 46 -2  1001.8  1.2  749  301           
06 05.11.18 250 (З) 4{16}  20000 м    ясно 
+0.1 -10.4 45 -2  1006  4.2  752  304           
09 05.11.18 270 (З) 6-12{17}  20000 м    ясно 
+1.3 -11.4 38 -2  1009  754  304    +2.5       
12 05.11.18 290 (З) 8-12{17}  20000 м    ясно 
+0.9 -12.2 37 -3  1010.7  1.7  755  305           
06 07.11.18 230 (ЮЗ) 20000 м  {ливн. осадки}  10/10 600 м 
[Sc]
-0.3 -0.9 96 1006.8  -2.8  753  304           
12 07.11.18 300 (СЗ) 5{10}  20000 м    ясно 
-0.3 -5.4 68 -3  1007.5  1.5  753  304           
03 08.11.18 280 (З) 7-14{16}  20000 м    ясно 
+3.3 -12.6 30 1019.5  0.7  762  305           
00 09.11.18 220 (ЮЗ) 20000 м    ясно 
+5 -7.1 41 +3  1019.4  -0.4  762  302           
06 09.11.18 280 (З) 4{14}  20000 м    ясно 
+1.2 -15 29 -1  1022.1  764  308           
09 09.11.18 010 (С) 20000 м    ясно 
-1.1 -12.1 43 -5  1024.6  2.4  766  311    +5.2       
12 09.11.18 310 (СЗ) 6{11}  20000 м    ясно 
-1.5 -14.2 37 -5  1026.9  2.3  768  312           
15 09.11.18 290 (З) 3{11}  20000 м    ясно 
-2.8 -15.4 37 -5  1028  1.1  768  314           
18 09.11.18 300 (СЗ) 20000 м    ясно 
-3.1 -15.4 38 -7  1029.1  1.1  769  315           
03 10.11.18 300 (СЗ) 8-14{18}  20000 м    ясно 
+0.4 -15.2 30 -4  1031  -0.1  771  311           
00 11.11.18 010 (С) 20000 м    9/4 600 м средняя, верхняя 
[Sc|Ac trans|Ci fib]
+0.6 -8 52 -1  1033.3  -0.3  772  311           
03 11.11.18 050 (СВ) 20000 м    8/3 600 м средняя, верхняя 
[Sc|Ac trans|Ci fib]
+1.5 -5.9 58 -1  1031.8  -1.5  771  310           
06 11.11.18 030 (СВ) 20000 м    8/8 600 м 
[Sc]
+1 -7.6 53 -2  1031.2  -0.6  771  310           
09 11.11.18 030 (СВ) 11-14{14}  20000 м    10/10 600 м 
[Sc]
+1.6 -1.7 79 -3  1030.3  -0.8  770  309    +3.2       
00 12.11.18 050 (СВ) 17-20{23}  4000 м  слаб. ливневой снег  10/10 300 м кучево-дожд. 
[Cb cap]
+0.3 +0.2 99 -6  1022.1  -2.1  764  307    +0.1       
12 12.11.18 080 (В) 7-13{19}  2000 м  слаб. ливневой снег  10/10 600 м кучево-дожд. 
[Cb cap]
+1.3 -3.1 72 -2  1007.6  -1.2  727  292           
21 12.11.18 080 (В) 14-20{20}  4000 м  ливневой дождь  10/10 300 м кучево-дожд. 
[Cb cap]
+4 +2.7 91 -1  1017.2  0.8  760  302  +0.1    29  мокрый или
старый снег
50-90% 
00 13.11.18 080 (В) 14-19{20}  10 км  слаб. ливневой дождь  10/10 300 м кучево-дожд. 
[Cb cap]
+4.3 +2.8 90 1017.7  0.6  761  301           
09 13.11.18 080 (В) 16-20{21}  4000 м  ливневой дождь  10/10 300 м кучево-дожд. 
[Cb cap]
+3.4 +2.1 91 -2  1018.8  0.9  762  303    +4.3  16     
Время (UTC), дата Ветер
(°,м/с) 
Видим.   Явления Облачность Т
(°С)
Тd
(°С)
f(%) Тe
(°С)
Pmin
(гПа)
dP
(гПа)
Po
(мм)
O2
(г/м3)
Тmin Tmax R s Состояние
почвы

Для получения пояснительной информации подведите курсор к названию столбца.

ПОГОДА в Семлячики - архив

Всё, что Вы хотите узнать о погоде в Семлячики - удобно и подробно!

Выберите нужную дату (начиная с 1 января 2015* года) и нажмите кнопку "Найти".
Будут отображены архивные сводки погоды по пункту Семлячики, начиная с указанной даты.


Отображать данные в формате CSV (для использования в таблицах Excel)


Внимание! Наш архив погоды предназначен исключительно для личного некоммерческого использования в познавательных целях. Если Вам необходимы официальные справки о состоянии погоды (для производственных, юридических, коммерческих и т.п. целей), обращайтесь в органы Росгидромета.

*Примечание: данная дата относится к архиву по метеостанциям СССР (Россия, СНГ, Балтия).
Архив по метеостанциям Зарубежной Европы и Азии (кроме Китая) хранится 10 дней, по другим регионам земного шара (Китай, Африка, Америка, Австралия, Океания) - 1 день.

Семлячики - район местоположения метеостанции


Название, широта, долгота, высота метеостанции:
Семлячики 54.1°ш. 160°д. 27 м над ур. моря [Российская Федерация]

Дополнительная информация

В oтличие oт бoльшинства пoгoдных сайтoв мы публикуем пoдрoбную метеoинфoрмацию в детальнoм прoфессиoнальнoм фoрмате.

Характеристики температуры и влажнoсти вoздуха измеряются на высoте 2 м в тени вдали oт зданий и деревьев.
Скoрoсть ветра измеряется на высoте 10 м (на урoвне рoста челoвека скoрoсть ветра ниже в 1.5-2 раза). Если метеoстанция нахoдится в гoрoде или в лесу, тo скoрoсть ветра занижена на 2-4 м/с пo сравнению с oткрытым местoм. Скoрoсть ветра над акватoриями крупных рек и oзёр, а также на вершинах хoлмoв на 2-5 м/с выше, чем в oбычных услoвиях.
Атмoсфернoе давление в разных тoчках местнoсти мoжет значительнo oтличаться oт давления на метеoстанции, в зависимoсти oт услoвий рельефа (при пoдъёме на 10 м давление пoнижается примернo на 1 мм рт.ст.).